Find Starlink 6224

NORAD ID: 56425 Int'l Des: 2023-061 Owner: SPXS Country: US Constellation: starlink operational
LEOCIRCULAR

リアルタイム位置

3D地球を読み込み中...

Starlink 6224について

説明を読み込み中...

次回通過

Passes for default location (London). Set your location on the main map for personalized predictions.

高度履歴

Loading altitude history...

軌道要素

1 56425U 23061BD 26107.25003472 -.00000254 00000-0 -76104-6 0 9990
2 56425 43.0001 321.3809 0002515 238.2083 50.5144 15.18414657 5845
Epoch: Apr 17, 2026 • Age: 12 hours

現在のステータス

高度 510.2 km
速度 7.61 km/s
衛星直下点 21.14°N, 1.86°W
打ち上げ日 May 4, 2023
運用期間 2.9 years
タイプ internet

技術仕様

分類 Payload
質量 305.00 kg
乾燥質量 290.00 kg
総質量 305.00 kg
長さ 0.20 m
直径 2.80 m
スパン 9.00 m
形状 Box + pan
製造者 SPXS
バスタイプ Starlink
フェーズステータス In Orbit
所有者/国 SPXS/US

Most Searched